CW4517 Weather Reports


Display with metric or nautical units.
time (UTC)temp
F
wind
direction
speed
MPH
gust
MPH
rain 1hr
in
rain 24hr
in
rain mn
in
humidity
%
barometer
mb
20260502203905 54 319 4.0 10.0 0.00 0.00 0.00 42 1013.9
20260502203400 55 10 4.0 10.0 0.00 0.00 0.00 41 1014.0
20260502202853 55 9 4.0 8.0 0.00 0.00 0.00 41 1014.0
20260502202348 55 75 3.0 8.0 0.00 0.00 0.00 40 1014.0
20260502201836 54 348 3.0 7.0 0.00 0.00 0.00 44 1014.2
20260502201330 54 63 4.0 8.0 0.00 0.00 0.00 42 1014.2
20260502200829 54 284 5.0 9.0 0.00 0.00 0.00 41 1014.2
20260502200324 54 274 4.0 9.0 0.00 0.00 0.00 42 1014.4
20260502195817 53 293 4.0 9.0 0.00 0.00 0.00 41 1014.4
20260502195312 54 13 3.0 9.0 0.00 0.00 0.00 42 1014.4
20260502194801 54 286 4.0 11.0 0.00 0.00 0.00 44 1014.6
20260502194258 54 237 5.0 11.0 0.00 0.00 0.00 41 1014.6
20260502193752 54 250 5.0 9.0 0.00 0.00 0.00 42 1014.6
20260502193513 54 257 4.0 9.0 0.00 0.00 0.00 42 1014.8
20260502192736 53 291 5.0 12.0 0.00 0.00 0.00 41 1014.8
20260502192230 53 340 5.0 12.0 0.00 0.00 0.00 42 1014.8
20260502191728 53 311 4.0 9.0 0.00 0.00 0.00 42 1015.0
20260502191222 53 233 3.0 9.0 0.00 0.00 0.00 41 1015.0
20260502190715 53 250 3.0 9.0 0.00 0.00 0.00 41 1015.0
20260502190211 53 265 4.0 8.0 0.00 0.00 0.00 41 1015.2
20260502185705 52 232 3.0 7.0 0.00 0.00 0.00 43 1015.2
20260502185159 52 279 3.0 10.0 0.00 0.00 0.00 44 1015.2
20260502184653 52 0 3.0 10.0 0.00 0.00 0.00 43 1015.3
20260502184146 52 321 3.0 9.0 0.00 0.00 0.00 43 1015.3
20260502183640 52 331 4.0 9.0 0.00 0.00 0.00 45 1015.3
20260502183138 51 330 3.0 9.0 0.00 0.00 0.00 47 1015.3
20260502182858 52 221 4.0 9.0 0.00 0.00 0.00 44 1015.3
20260502182138 52 226 3.0 9.0 0.00 0.00 0.00 43 1015.3
20260502182116 52 11 3.0 8.0 0.00 0.00 0.00 43 1015.6
20260502181402 51 313 4.0 10.0 0.00 0.00 0.00 44 1015.6
20260502180638 51 351 5.0 10.0 0.00 0.00 0.00 44 1015.6
20260502180138 51 9 4.0 14.0 0.00 0.00 0.00 44 1015.6
20260502170400 50 252 4.0 11.0 0.00 0.00 0.00 46 1016.2
20260502164138 49 285 3.0 12.0 0.00 0.00 0.00 45 1016.2
20260502163636 50 270 4.0 11.0 0.00 0.00 0.00 47 1016.2
20260502163130 50 9 4.0 11.0 0.00 0.00 0.00 47 1016.4
20260502162619 50 47 3.0 10.0 0.00 0.00 0.00 47 1016.4
20260502162122 49 150 3.0 10.0 0.00 0.00 0.00 50 1016.4
20260502161612 49 310 3.0 7.0 0.00 0.00 0.00 47 1016.5
20260502161106 49 292 3.0 7.0 0.00 0.00 0.00 48 1016.5
20260502160602 49 13 3.0 10.0 0.00 0.00 0.00 48 1016.5
20260502160313 50 32 4.0 10.0 0.00 0.00 0.00 46 1016.5
20260502152007 49 54 2.0 8.0 0.00 0.00 0.00 50 1016.6
20260502151500 48 34 2.0 8.0 0.00 0.00 0.00 48 1016.6
20260502151216 48 39 2.0 5.0 0.00 0.00 0.00 49 1016.6
20260502150449 48 54 2.0 5.0 0.00 0.00 0.00 51 1016.6
20260502130728 41 342 1.0 3.0 0.00 0.00 0.00 63 1016.3
20260502130214 41 329 1.0 3.0 0.00 0.00 0.00 65 1016.2
20260502123716 38 125 0.0 2.0 0.00 0.00 0.00 73 1016.2
20260502123214 38 125 0.0 2.0 0.00 0.00 0.00 75 1016.2
20260502122715 37 126 0.0 2.0 0.00 0.00 0.00 77 1016.2
20260502122216 37 65 0.0 1.0 0.00 0.00 0.00 79 1016.2
20260502121708 36 65 0.0 2.0 0.00 0.00 0.00 80 1016.2
20260502121200 36 65 0.0 2.0 0.00 0.00 0.00 81 1016.2
20260502120650 35 65 0.0 0.0 0.00 0.00 0.00 83 1016.2
20260502120150 35 65 0.0 0.0 0.00 0.00 0.00 84 1016.0
20260502115644 34 65 0.0 0.0 0.00 0.00 0.00 85 1016.0
20260502115136 34 65 0.0 0.0 0.00 0.00 0.00 86 1016.0
20260502114632 33 65 0.0 0.0 0.00 0.00 0.00 87 1015.7
20260502114121 32 65 0.0 0.0 0.00 0.00 0.00 86 1015.7
20260502113618 32 65 0.0 0.0 0.00 0.00 0.00 86 1015.7
20260502113112 31 80 0.0 0.0 0.00 0.00 0.00 86 1015.6
20260502112606 31 82 0.0 0.0 0.00 0.00 0.00 86 1015.6
20260502112101 31 84 0.0 0.0 0.00 0.00 0.00 86 1015.6
20260502111551 31 66 0.0 0.0 0.00 0.00 0.00 85 1015.6
20260502111049 31 71 0.0 0.0 0.00 0.00 0.00 85 1015.6
20260502110543 31 71 0.0 0.0 0.00 0.00 0.00 85 1015.6
20260502110036 31 73 0.0 0.0 0.00 0.00 0.00 85 1015.6
20260502105530 31 73 0.0 0.0 0.00 0.00 0.00 84 1015.6
20260502105021 31 73 0.0 0.0 0.00 0.00 0.00 84 1015.6
20260502104518 31 74 0.0 0.0 0.00 0.00 0.00 85 1015.5
20260502104014 31 73 0.0 0.0 0.00 0.00 0.00 84 1015.5
20260502103727 31 73 0.0 0.0 0.00 0.00 0.00 84 1015.5
20260502103001 31 73 0.0 0.0 0.00 0.00 0.00 84 1015.5
20260502102453 31 73 0.0 0.0 0.00 0.00 0.00 84 1015.5
20260502101948 31 74 0.0 0.0 0.00 0.00 0.00 84 1015.5
20260502101438 31 74 0.0 0.0 0.00 0.00 0.00 84 1015.5
20260502101157 31 74 0.0 0.0 0.00 0.00 0.00 84 1015.5
20260502100431 31 75 0.0 0.0 0.00 0.00 0.00 84 1015.5
20260502091331 32 69 0.0 0.0 0.00 0.00 0.00 84 1015.2
20260502090824 32 69 0.0 0.0 0.00 0.00 0.00 84 1015.2
20260502090319 33 69 0.0 0.0 0.00 0.00 0.00 83 1015.3
20260502071415 34 67 0.0 2.0 0.00 0.00 0.00 81 1015.5
20260502070641 34 67 0.0 1.0 0.00 0.00 0.00 81 1015.5
20260502070402 34 67 0.0 0.0 0.00 0.00 0.00 81 1015.6
20260502065627 34 67 0.0 0.0 0.00 0.00 0.00 80 1015.6
20260502065123 34 67 0.0 0.0 0.00 0.00 0.00 80 1015.6
20260502064619 35 67 0.0 0.0 0.00 0.00 0.00 80 1015.7
20260502064111 35 67 0.0 0.0 0.00 0.00 0.00 80 1015.7
20260502063607 35 67 0.0 0.0 0.00 0.00 0.00 79 1015.7
20260502063056 35 66 0.0 0.0 0.00 0.00 0.00 79 1015.7
20260502062554 35 66 0.0 0.0 0.00 0.00 0.00 79 1015.7
20260502062049 35 66 0.0 0.0 0.00 0.00 0.00 79 1015.7
20260502061807 35 66 0.0 0.0 0.00 0.00 0.00 79 1015.8
20260502061035 35 66 0.0 0.0 0.00 0.00 0.00 79 1015.8
20260502060530 35 67 0.0 0.0 0.00 0.00 0.00 79 1015.8
20260502060028 35 67 0.0 0.0 0.00 0.00 0.00 79 1015.9
20260502055518 35 66 0.0 0.0 0.00 0.00 0.00 79 1015.9
20260502055050 36 67 0.0 0.0 0.00 0.00 0.00 79 1015.9
20260502053959 36 66 0.0 0.0 0.00 0.00 0.00 78 1016.0
20260502053454 36 66 0.0 0.0 0.00 0.00 0.00 77 1016.0
20260502052942 36 66 0.0 0.0 0.00 0.00 0.00 77 1015.9
20260502052441 37 65 0.0 0.0 0.00 0.00 0.00 77 1015.9
20260502051936 37 65 0.0 0.0 0.00 0.00 0.00 77 1016.0
20260502051651 37 65 0.0 0.0 0.00 0.00 0.00 77 1016.0
20260502050924 37 65 0.0 1.0 0.00 0.00 0.00 76 1016.0
20260502050419 37 65 0.0 1.0 0.00 0.00 0.00 76 1016.0
20260502045914 37 65 0.0 2.0 0.00 0.00 0.00 76 1016.0
20260502045408 38 65 0.0 3.0 0.00 0.00 0.00 76 1016.0
20260502045124 38 66 1.0 3.0 0.00 0.00 0.00 76 1015.9
20260502044401 38 59 1.0 5.0 0.00 0.00 0.00 76 1015.9
20260502043901 38 58 1.0 5.0 0.00 0.00 0.00 75 1015.9
20260502043400 38 55 1.0 5.0 0.00 0.00 0.00 76 1015.9
20260502042900 38 26 1.0 5.0 0.00 0.00 0.00 76 1015.9
20260502042402 38 49 1.0 4.0 0.00 0.00 0.00 75 1015.9
20260502041901 38 51 1.0 3.0 0.00 0.00 0.00 76 1016.0
20260502041401 38 36 1.0 3.0 0.00 0.00 0.00 76 1016.0
20260502040858 38 63 1.0 3.0 0.00 0.00 0.00 76 1016.0
20260502040356 37 63 1.0 3.0 0.00 0.00 0.00 76 1015.9
20260502035854 37 55 1.0 3.0 0.00 0.00 0.00 76 1015.9
20260502035352 37 53 1.0 3.0 0.00 0.00 0.00 75 1015.9
20260502034853 37 56 1.0 3.0 0.00 0.00 0.00 75 1015.7
20260502034353 37 48 1.0 3.0 0.00 0.00 0.00 76 1015.7
20260502033855 37 44 1.0 3.0 0.00 0.00 0.00 76 1015.7
20260502033356 37 59 1.0 3.0 0.00 0.00 0.00 76 1015.7
20260502032851 37 53 1.0 3.0 0.00 0.00 0.00 75 1015.7
20260502032338 37 62 1.0 4.0 0.00 0.00 0.00 75 1015.7
20260502031825 37 55 1.0 4.0 0.00 0.00 0.00 75 1015.7
20260502031315 37 54 1.0 3.0 0.00 0.00 0.00 75 1015.7
20260502030802 38 64 1.0 4.0 0.00 0.00 0.00 75 1015.7
20260502030250 38 49 2.0 4.0 0.00 0.00 0.00 74 1015.6
20260502025739 38 43 2.0 4.0 0.00 0.00 0.00 74 1015.6
20260502025227 38 44 2.0 5.0 0.00 0.00 0.00 74 1015.6
20260502024940 38 57 2.0 5.0 0.00 0.00 0.00 75 1015.5
20260502024205 38 40 2.0 5.0 0.00 0.00 0.00 75 1015.5
20260502024154 38 17 3.0 7.0 0.00 0.00 0.00 75 1015.5
20260502023159 38 55 3.0 7.0 0.00 0.00 0.00 75 1015.2
20260502022652 38 60 3.0 7.0 0.00 0.00 0.00 75 1015.2
20260502022405 38 74 3.0 7.0 0.00 0.00 0.00 75 1015.2
20260502021638 39 53 3.0 8.0 0.00 0.00 0.00 74 1015.0
20260502021359 39 61 3.0 8.0 0.00 0.00 0.00 74 1015.0
20260502020620 39 46 2.0 6.0 0.00 0.00 0.00 74 1015.0
20260502020340 39 40 3.0 6.0 0.00 0.00 0.00 74 1014.8
20260502015615 39 59 4.0 9.0 0.00 0.00 0.00 74 1014.8
20260502015109 39 53 4.0 9.0 0.00 0.00 0.00 73 1014.8
20260502014602 39 63 4.0 9.0 0.00 0.00 0.00 73 1014.6
20260502014052 40 74 4.0 9.0 0.00 0.00 0.00 73 1014.6
20260502013813 40 51 5.0 13.0 0.00 0.00 0.00 73 1014.6
20260502013044 40 65 4.0 13.0 0.00 0.00 0.00 73 1014.4
20260502012539 40 53 4.0 9.0 0.00 0.00 0.00 72 1014.4
20260502012253 40 66 4.0 10.0 0.00 0.00 0.00 72 1014.4
20260502011523 40 26 4.0 10.0 0.00 0.00 0.00 72 1014.3
20260502011020 40 53 3.0 9.0 0.00 0.00 0.00 72 1014.3
20260502010516 41 52 3.0 9.0 0.00 0.00 0.00 72 1014.3
20260502010012 41 65 3.0 13.0 0.00 0.00 0.00 71 1014.0
20260502005733 41 67 4.0 13.0 0.00 0.00 0.00 71 1014.0
20260502005221 42 39 4.0 10.0 0.00 0.00 0.00 70 1014.0
20260502004452 42 62 5.0 14.0 0.00 0.00 0.00 71 1013.9
20260502003942 42 0 5.0 14.0 0.00 0.00 0.00 71 1013.9
20260502003440 42 71 4.0 11.0 0.00 0.00 0.00 71 1013.7
20260502002934 43 66 4.0 11.0 0.00 0.00 0.00 71 1013.7
20260502002427 43 62 4.0 11.0 0.00 0.00 0.00 70 1013.7
20260502001921 44 71 3.0 9.0 0.00 0.00 0.00 70 1013.5
20260502001410 44 28 4.0 8.0 0.00 0.00 0.00 70 1013.5
20260502000908 44 58 4.0 10.0 0.00 0.00 0.00 70 1013.5
20260502000403 44 80 3.0 10.0 0.00 0.00 0.00 70 1013.6
20260501235856 44 55 3.0 7.0 0.00 0.00 0.00 70 1013.6
20260501235351 44 57 3.0 8.0 0.00 0.00 0.00 70 1013.6
20260501234844 44 84 3.0 8.0 0.00 0.00 0.00 71 1013.6
20260501234340 44 65 3.0 8.0 0.00 0.00 0.00 70 1013.6
20260501233913 45 83 2.0 8.0 0.00 0.00 0.00 70 1013.6
20260501232820 45 38 4.0 9.0 0.00 0.00 0.00 70 1013.7
20260501232319 45 42 3.0 9.0 0.00 0.00 0.00 69 1013.7
20260501232036 45 37 3.0 7.0 0.00 0.00 0.00 69 1013.6
20260501231320 46 69 3.0 8.0 0.00 0.00 0.00 68 1013.6
20260501230821 46 73 4.0 9.0 0.00 0.00 0.00 68 1013.6
20260501230320 46 26 4.0 9.0 0.00 0.00 0.00 67 1013.8
20260501225820 46 40 4.0 9.0 0.00 0.00 0.00 68 1013.8
20260501225323 47 62 4.0 9.0 0.00 0.00 0.00 67 1013.8
20260501224823 47 39 3.0 8.0 0.00 0.00 0.00 67 1013.7
20260501224316 47 68 2.0 5.0 0.00 0.00 0.00 68 1013.7
20260501223804 46 105 3.0 9.0 0.00 0.00 0.00 68 1013.7
20260501223253 46 69 3.0 9.0 0.00 0.00 0.00 67 1013.8
20260501222752 46 74 2.0 8.0 0.00 0.00 0.00 67 1013.8
20260501222240 47 66 2.0 6.0 0.00 0.00 0.00 66 1013.8
20260501221959 47 37 3.0 8.0 0.00 0.00 0.00 67 1013.7
20260501221233 47 76 2.0 8.0 0.00 0.00 0.00 66 1013.7
20260501220728 47 76 3.0 8.0 0.00 0.00 0.00 67 1013.7
20260501220445 46 61 4.0 8.0 0.00 0.00 0.00 66 1013.8
20260501215714 47 22 4.0 8.0 0.00 0.00 0.00 66 1013.8
20260501215208 47 63 3.0 8.0 0.00 0.00 0.00 66 1013.8
20260501214657 47 74 3.0 7.0 0.00 0.00 0.00 67 1013.7
20260501214156 47 44 3.0 7.0 0.00 0.00 0.00 66 1013.7
20260501213651 47 46 3.0 8.0 0.00 0.00 0.00 67 1013.7
20260501213402 47 5 4.0 8.0 0.00 0.00 0.00 66 1013.7
20260501212639 47 76 3.0 8.0 0.00 0.00 0.00 66 1013.7
20260501212129 47 296 4.0 10.0 0.00 0.00 0.00 67 1013.7
20260501211627 47 39 4.0 10.0 0.00 0.00 0.00 66 1013.5
20260501211121 47 45 2.0 9.0 0.00 0.00 0.00 69 1013.5
20260501210615 47 109 3.0 7.0 0.00 0.00 0.00 68 1013.5
20260501210110 46 55 4.0 8.0 0.00 0.00 0.00 68 1013.5
20260501205603 46 27 4.0 10.0 0.00 0.00 0.00 69 1013.5
20260501205057 46 74 4.0 10.0 0.00 0.00 0.00 69 1013.5
20260501204546 45 63 5.0 10.0 0.00 0.00 0.00 69 1013.5